Regional Weather Roundup
Issued by NWS Newport/Morehead, NC

Current Version | Previous Version | Graphics & Text | Print | Product List | Glossary Off
Versions: 1 2 3 4 5 6 7 8 9 10 11 12 13 14 15 16 17 18 19 20 21 22 23 24 25 26 27 28 29 30 31 32 33 34 35 36 37 38 39 40 41 42 43 44 45 46 47 48 49 50
000 ASUS42 KMHX 280325 RWRMHX WEATHER ROUNDUP FOR EASTERN NORTH CAROLINA NATIONAL WEATHER SERVICE NEWPORT/MOREHEAD CITY NC 1100 PM EDT SUN MAY 27 2018 NOTE: "FAIR" INDICATES FEW OR NO CLOUDS BELOW 12,000 FEET WITH NO SIGNIFICANT WEATHER AND/OR OBSTRUCTIONS TO VISIBILITY NCZ015>017-031-032-045>047-102-103-280400- NORTH COAST CITY SKY/WX TMP DP RH WIND PRES REMARKS EDENTON NOT AVBL ELIZABETH CITY FAIR 77 71 82 S8 30.04R KITTY HAWK FAIR 76 70 80 SW5 30.04S MANTEO FAIR 76 71 83 SW12 30.05S $$ NCZ045>047-081-094-103-104-280400- CENTRAL COAST CITY SKY/WX TMP DP RH WIND PRES REMARKS FRISCO FAIR 76 74 93 SW7 30.07R $$ NCZ095-097-098-100-101-280400- SOUTHERN COAST CITY SKY/WX TMP DP RH WIND PRES REMARKS BEAUFORT FAIR 77 73 87 S8 30.05R CEDAR ISLAND NOT AVBL JACKSONVILLE FAIR 76 74 93 S5 30.04R PINEY ISLAND NOT AVBL WILMINGTON MOCLDY 77 72 84 SE5 30.02S $$ NCZ011>013-027>030-043-044-078>080-089-090>093-098-280400- COASTAL PLAIN CITY SKY/WX TMP DP RH WIND PRES REMARKS AHOSKIE FAIR 72 68 88 CALM 30.04R CLINTON FAIR 74 72 92 CALM 30.04R ELIZABETHTOWN CLOUDY 74 70 88 S3 30.03S GOLDSBORO FAIR 75 70 84 S3 30.03R GREENVILLE FAIR 75 70 83 S3 30.06S HAVELOCK CLEAR 77 74 90 S5 30.06R KENANSVILLE MOCLDY 70 68 94 CALM 30.05S KINSTON FAIR 75 71 86 S3 30.05R NEW BERN FAIR 72 71 97 CALM 30.06R RICHLANDS FAIR 74 72 93 CALM 30.04R ROCKY MOUNT FAIR 74 69 85 S3 30.04R WASHINGTON FAIR 75 71 88 S5 30.06R WHITEVILLE FAIR 73 70 91 CALM 30.02S $$ AMZ130-135-150-152-154-156-158-170-250-252-270-ANZ085-086-088-633-658-670-280400- MARINE OBSERVATIONS STATION/POSITION TIME TEMP WIND PRES WAVE SWELL AIR SEA DIR/SP/G HT/PER HT/PER (UTC) (F) (DEG/KT/KT) (MB) (FT/S) (FT/S) CHESAPEAKE LIGHT NOT AVBL 64 E VA BEACH 0250 75 73 220/ 16/ 17 1017.4 3/ 4 2/ 8 DUCK 0300 78 55 210/ 11/ 14 1017.2 2 E DUCK 0230 62 N/A 1/ 9 OREGON INLET 0300 78 81 210/ 15/ 16 1017.6 13E OREGON INLT 0248 71 N/A 3/ 5 2/ 8 HATTERAS CG 0300 76 78 200/ 1/ 4 1017.8 DIAMOND BUOY 0310 79 78 190/ 14/ 16 1018.5 CAPE LOOKOUT 0300 190/ 10/ 12 1018.0 BEAUFORT LAB 0300 78 79 190/ 9/ 11 1017.9 30 SE NEW RVR IN 0308 78 77 170/ 8/ 12 1017.3 30 SE NEW RVR IN 0230 77 N/A 4/ 6 27 SE WRIGHTSVLE 0308 78 77 160/ 10/ 16 1017.0 5 SE WRIGHTSVLE 0308 76 76 110/ 8/ 12 1016.1 225 S CAPE HAT 0310 78 150/ 16/ 19 1018.0 41 SE CHARLESTON 0300 76 140/ 17/ 23 1014.1 $$

USA.gov is the U.S. government's official web portal to all federal, state and local government web resources and services.